Chattanooga, TN

1:04 PM EDT on May 26, 2018 (GMT -0400)
Lovell

Weather History for KCHA - November, 2010

Change the Weather History Date:

Thursday, November 18, 2010

  Actual Average Record
Temperature  
Mean Temperature 51 °F 50 °F  
Max Temperature 62 °F 61 °F 79 °F (1985)
Min Temperature 39 °F 39 °F 18 °F (1891)
Degree Days  
Heating Degree Days 14 15  
Month to date heating degree days 225 213  
Since 1 July heating degree days 330 385  
Cooling Degree Days 0 0  
Month to date cooling degree days 0 0  
Year to date cooling degree days 2393 1737  
Moisture  
Dew Point 40 °F    
Average Humidity 69    
Maximum Humidity 96    
Minimum Humidity 42    
Precipitation  
Precipitation 0.00 in 0.18 in 2.05 in (2015)
Month to date precipitation 2.99 2.75  
Year to date precipitation 35.47 45.33  
Snow  
Snow 0.00 in 0.00 in - ()
Month to date snowfall 0.0 0.0  
Since 1 July snowfall 0.0 0.0  
Since 1 September snowfall 0.0 0.0  
Snow Depth 0.00 in    
Sea Level Pressure  
Sea Level Pressure 30.22 in    
Wind  
Wind Speed 2 mph (West)    
Max Wind Speed 8 mph    
Max Gust Speed 10 mph    
Visibility 10 miles    
Events      
T = Trace of Precipitation, MM = Missing Value Source: NWS Daily Summary

Daily Weather History Graph

Daily Weather History Graph

Search for Another Location

Airport or City:

Astronomy

Nov. 18, 2010 Rise Set
Actual Time 7:18 AM EST 5:33 PM EST
Civil Twilight 6:51 AM EST 6:00 PM EST
Nautical Twilight 6:20 AM EST 6:31 PM EST
Astronomical Twilight 5:50 AM EST 7:01 PM EST
Moon 3:29 PM EST (11/18) 4:19 AM EST (11/18)
Length of Visible Light 11h 09m
Length of Day
10h 15m
Waxing Gibbous, 91% of the Moon is Illuminated
Nov 18
Waxing Gibbous
Nov 21
Full
Nov 28
Last Quarter
Dec 5
New
Dec 13
First Quarter

Hourly Weather History & Observations

Time (EST) Temp. Windchill Dew Point Humidity Pressure Visibility Wind Dir Wind Speed Gust Speed Precip Events Conditions
12:53 AM 41.0 °F - 39.0 °F 93% 30.17 in 10.0 mi Calm Calm - N/A   Partly Cloudy
1:53 AM 39.0 °F 36.8 °F 37.0 °F 93% 30.18 in 10.0 mi ESE 3.5 mph - N/A   Partly Cloudy
2:23 AM 42.8 °F - 39.2 °F 87% 30.18 in 10.0 mi Calm Calm - N/A   Mostly Cloudy
2:53 AM 41.0 °F - 39.0 °F 93% 30.19 in 10.0 mi Calm Calm - N/A   Mostly Cloudy
3:53 AM 43.0 °F - 39.9 °F 89% 30.20 in 10.0 mi Calm Calm - N/A   Overcast
4:38 AM 42.8 °F 41.1 °F 39.2 °F 87% 30.21 in 10.0 mi West 3.5 mph - N/A   Mostly Cloudy
4:50 AM 42.8 °F - 39.2 °F 87% 30.21 in 10.0 mi Calm Calm - N/A   Mostly Cloudy
4:53 AM 42.1 °F - 41.0 °F 96% 30.21 in 10.0 mi Calm Calm - N/A   Mostly Cloudy
5:53 AM 43.0 °F 41.3 °F 39.9 °F 89% 30.22 in 10.0 mi SSE 3.5 mph - N/A   Mostly Cloudy
6:53 AM 42.1 °F 40.2 °F 39.9 °F 92% 30.24 in 10.0 mi WSW 3.5 mph - N/A   Mostly Cloudy
7:53 AM 42.1 °F 39.2 °F 39.9 °F 92% 30.24 in 10.0 mi SW 4.6 mph - N/A   Scattered Clouds
8:53 AM 45.0 °F - 41.0 °F 86% 30.27 in 10.0 mi Calm Calm - N/A   Mostly Cloudy
9:53 AM 48.9 °F - 42.1 °F 77% 30.27 in 10.0 mi Calm Calm - N/A   Mostly Cloudy
10:53 AM 54.0 °F - 42.1 °F 64% 30.25 in 10.0 mi Calm Calm - N/A   Scattered Clouds
11:53 AM 59.0 °F - 42.1 °F 53% 30.23 in 10.0 mi Calm Calm - N/A   Mostly Cloudy
12:53 PM 60.1 °F - 39.9 °F 47% 30.21 in 10.0 mi Calm Calm - N/A   Mostly Cloudy
1:53 PM 60.1 °F - 39.9 °F 47% 30.20 in 10.0 mi Calm Calm - N/A   Mostly Cloudy
2:53 PM 60.1 °F - 39.0 °F 46% 30.18 in 10.0 mi Calm Calm - N/A   Mostly Cloudy
3:53 PM 61.0 °F - 37.0 °F 41% 30.18 in 10.0 mi WNW 5.8 mph - N/A   Mostly Cloudy
4:53 PM 61.0 °F - 37.9 °F 42% 30.19 in 10.0 mi West 5.8 mph - N/A   Mostly Cloudy
5:53 PM 59.0 °F - 39.0 °F 48% 30.21 in 10.0 mi WSW 3.5 mph - N/A   Mostly Cloudy
6:53 PM 57.0 °F - 39.0 °F 51% 30.23 in 10.0 mi WNW 3.5 mph - N/A   Mostly Cloudy
7:53 PM 55.0 °F - 42.1 °F 62% 30.24 in 10.0 mi WNW 3.5 mph - N/A   Mostly Cloudy
8:53 PM 55.0 °F - 41.0 °F 59% 30.24 in 10.0 mi North 3.5 mph - N/A   Mostly Cloudy
9:53 PM 50.0 °F - 42.1 °F 74% 30.25 in 10.0 mi Calm Calm - N/A   Partly Cloudy
10:53 PM 46.9 °F - 41.0 °F 80% 30.26 in 10.0 mi Calm Calm - N/A   Clear
11:53 PM 45.0 °F - 41.0 °F 86% 30.26 in 10.0 mi Calm Calm - N/A   Clear